Retour au catalogue

STARLINK-32496

ActifCommunicationsVLEO
NORAD 62051·PAYLOAD·🇺🇸 United States

Lancé Nov 21, 2024 depuis Cape Canaveral Space Force Station

Loading…

Prochains Passages (prochaines 24 heures)

TLE

FraisSource: CelesTrak SupGP

Époque: Sep 14, 2026, 22:20 UTC

1 62051C 24216V   26257.93104167  .00031200  00000+0  11302-2 0  2573
2 62051  42.9993 275.0169 0001456 266.6870  24.0649 15.27560647    12

Suivez STARLINK-32496 en temps réel avec AllMySat

Download on the App Store